Flag for Iran Weather past 2 weeks in Mashhad, Iran

Now
88 °F

Sunny.


Feels Like: 84 °F
Forecast: 59 / 93 °F
Wind: 12 mph from East

Location: Mashhad Airport

Current Time: Aug 2, 2014 at 1:25:54 PM

Latest Report: Aug 2, 2014 at 12:30 PM


Visibility: 10 mi

Pressure: 29.95 "Hg

Humidity: 8%

Dew point: 19 °F

Location of MashhadLocation

Historic Weather in Mashhad — Graph

°F

Mashhad temperature yesterday

Maximum temperature yesterday: 91 °F (at 4:00 PM)
Minimum temperature yesterday: 61 °F (at 6:00 AM)
Average temperature yesterday: 77 °F

Past Weeks' High & Low Weather Summary

 TemperatureHumidityPressure
High106 °F (Jul 22, 2:00 PM)44% (Jul 28, 4:55 AM)30.04 "Hg (Jul 28, 4:55 AM)
Low61 °F (Aug 1, 6:00 AM)3% (Jul 26, 1:55 PM)29.68 "Hg (Jul 22, 3:00 PM)
Average83 °F15%29.88 "Hg
* Reported Jul 18 12:30 PM — Aug 2 12:30 PM, Mashhad, Weather by CustomWeather, © 2014

Note: Actual official high and low records may vary slightly from our data, if they occured in-between our weather recording intervals... More about our weather records

Advertising

Mashhad weather history for previous 24 hours

 ConditionsComfort  
Time TempWeatherWind HumidityBarometerVisibility
12:30 PM
Aug 2
88 °FSunny.12 mph8%29.95 "Hg10 mi
12:00 PM88 °FSunny.9 mph7%29.95 "Hg10 mi
11:30 AM86 °FSunny.9 mph8%29.98 "Hg10 mi
10:50 AM84 °FSunny.12 mph8%29.98 "Hg10 mi
10:30 AM82 °FSunny.5 mph9%29.98 "Hg10 mi
10:00 AM82 °FSunny.5 mph8%29.98 "Hg10 mi
9:30 AM81 °FSunny.5 mph11%29.98 "Hg10 mi
8:55 AM81 °FSunny.5 mph11%29.98 "Hg10 mi
8:30 AM79 °FSunny.No wind12%29.98 "Hg10 mi
8:00 AM75 °FSunny.5 mph15%29.95 "Hg10 mi
7:30 AM72 °FSunny.7 mph19%29.95 "Hg10 mi
6:55 AM70 °FClear.7 mph21%29.95 "Hg10 mi
6:30 AM68 °FClear.5 mph24%29.95 "Hg10 mi
5:55 AM64 °FClear.No wind26%29.95 "Hg10 mi
5:30 AM64 °FClear.5 mph22%29.92 "Hg10 mi
4:55 AM66 °FClear.5 mph19%29.92 "Hg10 mi
4:20 AM68 °FClear.7 mph18%29.95 "Hg10 mi
4:00 AM70 °FClear.5 mph17%29.95 "Hg10 mi
3:30 AM70 °FThunderstorms. Passing clouds.N/A17%29.95 "HgN/A
2:55 AM70 °FClear.7 mph17%29.95 "Hg10 mi
2:30 AM70 °FClear.7 mph17%29.95 "Hg10 mi
2:00 AM72 °FClear.9 mph16%29.95 "Hg10 mi
1:30 AM72 °FClear.9 mph16%29.95 "Hg10 mi
1:00 AM72 °FClear.7 mph15%29.95 "Hg10 mi
12:30 AM72 °FClear.12 mph16%29.95 "Hg10 mi
12:00 AM72 °FClear.9 mph16%29.95 "Hg10 mi
11:30 PM
Aug 1
72 °FClear.9 mph15%29.95 "Hg10 mi
10:55 PM73 °FClear.5 mph14%29.95 "Hg10 mi
10:30 PM73 °FClear.7 mph14%29.95 "Hg10 mi
10:00 PM73 °FClear.7 mph14%29.95 "Hg10 mi
9:30 PM73 °FClear.9 mph14%29.95 "Hg10 mi
9:00 PM75 °FSunny.7 mph13%29.95 "Hg10 mi
8:30 PM75 °FSunny.7 mph13%29.92 "Hg10 mi
7:55 PM79 °FSunny.12 mph11%29.92 "Hg10 mi
7:30 PM81 °FSunny.14 mph12%29.92 "Hg10 mi
6:55 PM82 °FSunny.14 mph11%29.92 "Hg10 mi
6:30 PM86 °FSunny.18 mph8%29.92 "Hg10 mi
6:00 PM88 °FSunny.16 mph9%29.92 "Hg10 mi
5:30 PM90 °FSunny.12 mph7%29.92 "Hg10 mi
4:55 PM90 °FSunny.14 mph7%29.92 "Hg10 mi
4:30 PM90 °FSunny.12 mph7%29.92 "Hg10 mi
4:00 PM91 °FSunny.9 mph7%29.92 "Hg10 mi
3:30 PM90 °FSunny.9 mph7%29.92 "Hg10 mi
2:55 PM90 °FSunny.7 mph7%29.95 "Hg10 mi
2:30 PM90 °FSunny.9 mph8%29.95 "Hg10 mi
2:00 PM88 °FSunny.12 mph8%29.95 "Hg10 mi
1:30 PM88 °FSunny.12 mph9%29.98 "Hg10 mi
Weather by CustomWeather, © 2014

See weather overviewHow to use our weather pages